Date String (YYYY-MM-DD hh:mm:ss) UTC,Instrument flags,absolute air pressure of the measurement (hPa),sample flow rate (lpm),inlet stack bypass flow (lpm),air temperature of the measurement (°C),ambient temperature measured by the external sensor (°C),aerosol sample conditioner tube jacket temperature (°C),OPC LED temperature (°C),internal box temperature (°C),relative humidity of the measurement (%),span deviation,mass concentration of particles derived from Lorenz-Mie calculation of OPC scattering (μg/m³),mass concentration of particles derived from Lorenz-Mie calculation of OPC scattering (μg/m³),mass concentration of particles derived from Lorenz-Mie calculation of OPC scattering (μg/m³)
DateTimeUTC,F1_M11,P_M11,Q1_M11,Q2_M11,T1_M11,T2_M11,T3_M11,T4_M11,T5_M11,U1_M11,ZSPAN_M11,X2_M11,X0_M11,X1_M11
2023-12-27 13:00:00,SystemResetWarning,0830.0,5.00,000.00,019.1,018.5,000.0,027.3,020.4,16.3,0000.0,0000.84,0001.86,0000.55
2023-12-27 13:01:00,SystemResetWarning,0830.0,5.00,000.00,019.1,018.5,000.0,027.3,020.4,16.2,0000.0,0000.83,0001.83,0000.55
2023-12-27 13:02:00,SystemResetWarning,0830.0,5.00,000.00,019.1,018.5,000.0,027.4,020.4,16.0,0000.0,0000.82,0001.79,0000.55
2023-12-27 13:03:00,SystemResetWarning,0830.0,5.01,000.00,019.1,018.5,000.0,027.4,020.5,15.6,0000.0,0000.80,0001.68,0000.55
2023-12-27 13:04:00,SystemResetWarning,0830.0,5.00,000.00,019.1,018.5,000.0,027.4,020.4,15.6,0000.0,0000.78,0001.71,0000.55
2023-12-27 13:05:00,SystemResetWarning,0830.0,5.00,000.00,019.1,018.5,000.0,027.4,020.5,15.4,0000.0,0000.77,0001.94,0000.55
2023-12-27 13:06:00,SystemResetWarning,0830.0,5.00,000.00,019.1,018.5,000.0,027.4,020.5,15.2,0000.0,0000.74,0001.83,0000.56
2023-12-27 13:07:00,SystemResetWarning,0830.0,5.00,000.00,019.1,018.5,000.0,027.4,020.5,14.8,0000.0,0000.73,0001.80,0000.57
2023-12-27 13:08:00,SystemResetWarning,0830.0,5.00,000.00,019.1,018.5,000.0,027.4,020.5,14.6,0000.0,0000.74,0001.58,0000.56
2023-12-27 13:09:00,SystemResetWarning,0830.0,5.00,000.00,019.1,018.4,000.0,027.4,020.5,14.5,0000.0,0000.73,0001.55,0000.56
2023-12-27 13:10:00,SystemResetWarning,0830.0,5.00,000.00,019.2,018.4,000.0,027.4,020.5,14.7,0000.0,0000.72,0001.54,0000.55
2023-12-27 13:11:00,SystemResetWarning,0830.0,5.00,000.00,019.2,018.4,000.0,027.4,020.5,15.2,0000.0,0000.73,0001.56,0000.54
2023-12-27 13:12:00,SystemResetWarning,0830.0,5.00,000.00,019.2,018.4,000.0,027.4,020.5,16.2,0000.0,0000.70,0001.49,0000.54
2023-12-27 13:13:00,SystemResetWarning,0830.0,5.00,000.00,019.2,018.4,000.0,027.4,020.5,16.5,0000.0,0000.68,0001.49,0000.53
2023-12-27 13:14:00,SystemResetWarning,0830.0,5.00,000.00,019.2,018.4,000.0,027.4,020.5,16.6,0000.0,0000.70,0001.58,0000.53
2023-12-27 13:15:00,SystemResetWarning,0830.0,5.00,000.00,019.2,018.4,000.0,027.4,020.5,16.4,0000.0,0000.71,0001.90,0000.54
2023-12-27 13:16:00,SystemResetWarning,0830.0,5.00,000.00,019.2,018.4,000.0,027.4,020.5,15.7,0000.0,0000.72,0001.78,0000.55
2023-12-27 13:17:00,SystemResetWarning,0830.0,5.01,000.00,019.2,018.4,000.0,027.5,020.5,15.0,0000.0,0000.71,0001.78,0000.53
2023-12-27 13:18:00,SystemResetWarning,0830.0,5.01,000.00,019.2,018.5,000.0,027.5,020.5,14.9,0000.0,0000.70,0001.76,0000.53
2023-12-27 13:19:00,SystemResetWarning,0830.0,5.00,000.00,019.2,018.5,000.0,027.5,020.6,16.0,0000.0,0000.69,0001.67,0000.52
2023-12-27 13:20:00,SystemResetWarning,0830.0,4.99,000.00,019.2,018.5,000.0,027.5,020.6,15.7,0000.0,0000.67,0001.63,0000.51
2023-12-27 13:21:00,SystemResetWarning,0830.0,4.99,000.00,019.2,018.5,000.0,027.5,020.6,15.3,0000.0,0000.65,0001.62,0000.50
2023-12-27 13:22:00,SystemResetWarning,0830.0,5.00,000.00,019.2,018.5,000.0,027.5,020.6,15.3,0000.0,0000.65,0001.63,0000.49
2023-12-27 13:23:00,SystemResetWarning,0830.0,5.00,000.00,019.2,018.5,000.0,027.5,020.5,15.5,0000.0,0000.65,0001.64,0000.48
2023-12-27 13:24:00,SystemResetWarning,0830.0,5.01,000.00,019.2,018.5,000.0,027.5,020.6,15.2,0000.0,0000.63,0001.55,0000.47
2023-12-27 13:25:00,SystemResetWarning,0830.0,5.01,000.00,019.2,018.5,000.0,027.5,020.6,15.3,0000.0,0000.61,0001.44,0000.47
2023-12-27 13:26:00,SystemResetWarning,0830.1,5.00,000.00,019.2,018.5,000.0,027.5,020.6,15.4,0000.0,0000.61,0001.00,0000.46
2023-12-27 13:27:00,SystemResetWarning,0830.0,5.00,000.00,019.2,018.5,000.0,027.5,020.6,15.1,0000.0,0000.62,0000.96,0000.45
2023-12-27 13:28:00,SystemResetWarning,0830.0,4.99,000.00,019.2,018.5,000.0,027.5,020.6,15.1,0000.0,0000.60,0000.95,0000.44
2023-12-27 13:29:00,SystemResetWarning,0830.0,5.00,000.00,019.2,018.5,000.0,027.5,020.6,15.3,0000.0,0000.58,0000.90,0000.43
2023-12-27 13:30:00,SystemResetWarning,0830.0,5.00,000.00,019.2,018.5,000.0,027.5,020.6,15.2,0000.0,0000.56,0000.87,0000.43
2023-12-27 13:31:00,SystemResetWarning,0830.1,5.00,000.00,019.2,018.5,000.0,027.5,020.6,15.5,0000.0,0000.57,0000.88,0000.43
2023-12-27 13:32:00,SystemResetWarning,0830.1,5.00,000.00,019.3,018.5,000.0,027.5,020.6,15.8,0000.0,0000.58,0000.91,0000.43
2023-12-27 13:33:00,SystemResetWarning,0830.1,5.01,000.00,019.3,018.5,000.0,027.5,020.6,15.6,0000.0,0000.58,0000.93,0000.43
2023-12-27 13:34:00,SystemResetWarning,0830.1,5.00,000.00,019.3,018.5,000.0,027.5,020.6,15.5,0000.0,0000.58,0000.92,0000.43
2023-12-27 13:35:00,SystemResetWarning,0830.1,5.00,000.00,019.3,018.5,000.0,027.6,020.6,16.1,0000.0,0000.57,0000.90,0000.42
2023-12-27 13:36:00,SystemResetWarning,0830.1,5.00,000.00,019.3,018.5,000.0,027.6,020.6,16.0,0000.0,0000.56,0000.90,0000.41
2023-12-27 13:37:00,SystemResetWarning,0830.1,5.00,000.00,019.3,018.5,000.0,027.6,020.6,15.7,0000.0,0000.56,0000.93,0000.40
2023-12-27 13:38:00,SystemResetWarning,0830.1,5.00,000.00,019.3,018.5,000.0,027.6,020.6,15.6,0000.0,0000.54,0000.97,0000.39
2023-12-27 13:39:00,SystemResetWarning,0830.1,5.00,000.00,019.3,018.5,000.0,027.6,020.6,15.4,0000.0,0000.55,0001.01,0000.40
2023-12-27 13:40:00,SystemResetWarning,0830.1,5.00,000.00,019.3,018.5,000.0,027.6,020.6,15.3,0000.0,0000.54,0001.01,0000.39
2023-12-27 13:41:00,SystemResetWarning,0830.2,5.00,000.00,019.3,018.5,000.0,027.6,020.6,15.2,0000.0,0000.53,0000.98,0000.38
2023-12-27 13:42:00,SystemResetWarning,0830.1,5.00,000.00,019.3,018.5,000.0,027.6,020.6,15.1,0000.0,0000.52,0000.97,0000.38
2023-12-27 13:43:00,SystemResetWarning,0830.1,5.00,000.00,019.3,018.5,000.0,027.6,020.6,15.0,0000.0,0000.51,0000.93,0000.37
2023-12-27 13:44:00,SystemResetWarning,0830.1,5.00,000.00,019.3,018.5,000.0,027.6,020.6,15.2,0000.0,0000.47,0000.84,0000.36
2023-12-27 13:45:00,SystemResetWarning,0830.1,4.99,000.00,019.3,018.5,000.0,027.6,020.6,15.2,0000.0,0000.47,0000.86,0000.36
2023-12-27 13:46:00,SystemResetWarning,0830.1,5.00,000.00,019.3,018.5,000.0,027.6,020.6,15.3,0000.0,0000.48,0000.89,0000.36
2023-12-27 13:47:00,SystemResetWarning,0830.1,5.00,000.00,019.3,018.5,000.0,027.6,020.6,15.5,0000.0,0000.47,0000.87,0000.36
2023-12-27 13:48:00,SystemResetWarning,0830.2,5.01,000.00,019.3,018.5,000.0,027.6,020.6,15.4,0000.0,0000.44,0000.75,0000.35
2023-12-27 13:49:00,SystemResetWarning,0830.2,5.01,000.00,019.3,018.5,000.0,027.6,020.6,16.4,0000.0,0000.42,0000.61,0000.35
2023-12-27 13:50:00,SystemResetWarning,0830.2,5.01,000.00,019.3,018.5,000.0,027.6,020.7,16.4,0000.0,0000.40,0000.54,0000.35
2023-12-27 13:51:00,SystemResetWarning,0830.2,5.00,000.00,019.3,018.5,000.0,027.6,020.7,15.4,0000.0,0000.42,0000.58,0000.36
2023-12-27 13:52:00,SystemResetWarning,0830.2,5.00,000.00,019.3,018.5,000.0,027.6,020.6,15.0,0000.0,0000.43,0000.60,0000.37
2023-12-27 13:53:00,SystemResetWarning,0830.2,5.00,000.00,019.3,018.5,000.0,027.6,020.7,14.9,0000.0,0000.44,0000.63,0000.37
2023-12-27 13:54:00,SystemResetWarning,0830.1,5.00,000.00,019.3,018.5,000.0,027.6,020.7,14.8,0000.0,0000.44,0000.62,0000.37
2023-12-27 13:55:00,SystemResetWarning,0830.1,5.00,000.00,019.3,018.6,000.0,027.6,020.7,14.8,0000.0,0000.44,0000.62,0000.37
2023-12-27 13:56:00,SystemResetWarning,0830.1,5.00,000.00,019.3,018.6,000.0,027.6,020.7,14.8,0000.0,0000.43,0000.60,0000.37
2023-12-27 13:57:00,SystemResetWarning,0830.1,5.00,000.00,019.3,018.6,000.0,027.6,020.7,15.0,0000.0,0000.42,0000.56,0000.37
2023-12-27 13:58:00,SystemResetWarning,0830.2,5.00,000.00,019.3,018.6,000.0,027.6,020.7,15.5,0000.0,0000.41,0000.56,0000.36
2023-12-27 13:59:00,SystemResetWarning,0830.1,5.01,000.00,019.3,018.6,000.0,027.6,020.7,15.7,0000.0,0000.41,0000.55,0000.36
